Precipitable_Water
1.38 1.44 1.58 1.53 1.46 1.32 1.27 1.21 1.14 1.06 1.03 1.03 1.08 1.09 1.09 1.10 1.09 1.11 1.12 1.20 1.23 1.25 1.29 1.35 1.38 1.50 1.56 1.64 1.70 1.69 1.67 1.62
1.33 1.48 1.47 1.57 1.49 1.36 1.28 1.23 1.16 1.09 1.06 1.05 1.04 1.07 1.09 1.09 1.08 1.14 1.14 1.19 1.21 1.19 1.23 1.32 1.39 1.46 1.57 1.63 1.68 1.62 1.60 1.52
0.63 0.98 1.44 1.59 1.70 1.68 1.52 1.34 1.25 1.17 1.12 1.12 1.09 1.05 1.05 1.09 1.12 1.15 1.17 1.20 1.21 1.17 1.20 1.23 1.33 1.42 1.52 1.60 1.64 1.57 1.49 1.46
0.58 0.71 0.85 1.09 1.26 1.58 1.75 1.68 1.48 1.33 1.17 1.10 1.11 1.11 1.08 1.05 1.11 1.16 1.19 1.18 1.20 1.18 1.18 1.20 1.29 1.39 1.47 1.59 1.59 1.53 1.45 1.42
0.50 0.57 0.65 0.73 0.86 1.05 1.28 1.48 1.57 1.52 1.39 1.22 1.09 1.13 1.15 1.13 1.08 1.11 1.16 1.18 1.16 1.16 1.17 1.17 1.21 1.27 1.36 1.48 1.54 1.50 1.45 1.49
0.49 0.50 0.52 0.57 0.66 0.77 0.86 1.05 1.31 1.31 1.37 1.46 1.29 1.06 1.09 1.11 1.11 1.07 1.09 1.16 1.13 1.13 1.12 1.14 1.18 1.21 1.29 1.45 1.50 1.49 1.43 1.44
0.48 0.49 0.47 0.47 0.52 0.58 0.64 0.73 0.85 1.03 1.26 1.32 1.51 1.33 1.10 1.10 1.12 1.15 1.10 1.15 1.14 1.12 1.10 1.09 1.13 1.18 1.27 1.46 1.50 1.45 1.41 1.38
0.46 0.46 0.46 0.45 0.44 0.45 0.48 0.55 0.61 0.74 0.89 1.17 1.38 1.51 1.36 1.24 1.12 1.15 1.15 1.12 1.14 1.12 1.08 1.07 1.07 1.12 1.23 1.43 1.51 1.47 1.45 1.34
0.42 0.39 0.38 0.36 0.36 0.37 0.38 0.40 0.42 0.48 0.63 0.79 1.08 1.42 1.51 1.42 1.28 1.17 1.17 1.15 1.11 1.16 1.09 1.13 1.13 1.13 1.21 1.41 1.53 1.50 1.49 1.41
0.35 0.37 0.38 0.38 0.38 0.38 0.38 0.38 0.39 0.39 0.41 0.55 0.71 0.98 1.32 1.51 1.42 1.27 1.21 1.21 1.17 1.16 1.11 1.11 1.13 1.12 1.20 1.36 1.46 1.55 1.48 1.44
0.34 0.36 0.36 0.37 0.38 0.39 0.39 0.39 0.38 0.40 0.42 0.43 0.48 0.65 0.90 1.27 1.48 1.42 1.31 1.19 1.20 1.17 1.13 1.13 1.12 1.12 1.22 1.32 1.41 1.46 1.46 1.46
0.36 0.36 0.36 0.37 0.37 0.38 0.39 0.38 0.39 0.39 0.41 0.44 0.46 0.44 0.58 0.80 1.20 1.47 1.46 1.27 1.17 1.17 1.14 1.14 1.16 1.15 1.19 1.28 1.36 1.39 1.44 1.43
0.32 0.33 0.36 0.37 0.36 0.35 0.35 0.35 0.37 0.40 0.41 0.44 0.47 0.49 0.48 0.58 0.73 1.23 1.44 1.40 1.19 1.17 1.18 1.11 1.12 1.21 1.09 1.21 1.29 1.35 1.37 1.37
0.33 0.34 0.38 0.40 0.39 0.39 0.41 0.42 0.43 0.45 0.47 0.48 0.50 0.53 0.56 0.55 0.60 0.78 1.30 1.45 1.37 1.19 1.15 1.11 1.11 1.20 1.01 1.07 0.96 1.12 1.26 1.35
0.33 0.35 0.38 0.41 0.42 0.43 0.45 0.48 0.50 0.50 0.52 0.51 0.53 0.57 0.60 0.59 0.61 0.67 0.89 1.33 1.52 1.26 1.24 1.12 1.01 1.12 1.14 0.96 0.86 0.84 1.01 1.20
0.35 0.36 0.39 0.42 0.44 0.44 0.45 0.47 0.47 0.55 0.54 0.55 0.55 0.60 0.61 0.63 0.62 0.65 0.67 1.10 1.33 1.51 1.24 1.19 1.11 0.98 1.11 1.12 1.06 0.95 0.81 0.84
0.33 0.36 0.40 0.44 0.46 0.50 0.52 0.55 0.60 0.56 0.54 0.53 0.54 0.55 0.58 0.64 0.67 0.65 0.65 0.85 1.11 1.36 1.45 1.28 1.19 1.10 0.99 1.05 1.01 1.00 1.00 0.86
0.30 0.34 0.40 0.46 0.50 0.54 0.58 0.60 0.54 0.51 0.54 0.53 0.51 0.53 0.55 0.60 0.67 0.70 0.67 0.65 0.92 1.29 1.44 1.40 1.19 1.14 1.12 1.04 1.00 0.89 0.84 0.83
0.29 0.33 0.38 0.46 0.51 0.56 0.62 0.68 0.58 0.58 0.62 0.61 0.57 0.55 0.57 0.60 0.70 0.68 0.69 0.65 0.72 0.97 1.25 1.54 1.38 1.20 1.16 1.04 1.04 0.98 0.97 0.93
0.31 0.33 0.36 0.43 0.50 0.55 0.62 0.70 0.69 0.71 0.75 0.73 0.66 0.63 0.66 0.72 0.73 0.73 0.72 0.72 0.71 0.71 0.91 1.03 1.27 1.31 1.22 1.18 1.04 1.01 1.02 0.97
Wind_Speed
14 14 15 16 18 18 18 18 18 17 17 16 16 14 14 13 13 12 12 12 12 12 11 11 11 11 10 10 10 9 8 6
16 16 16 17 18 20 21 21 21 20 19 18 18 17 16 15 14 14 13 13 13 13 12 12 12 12 11 11 11 11 10 9
13 14 17 19 21 21 22 23 23 23 22 21 20 19 18 17 16 16 15 15 14 14 14 13 13 13 12 12 12 11 10 9
16 16 17 19 19 21 24 24 24 24 25 24 23 22 21 20 19 18 17 17 16 15 15 15 15 14 13 13 13 12 11 10
18 19 19 20 21 22 24 24 27 28 26 26 26 25 24 23 21 21 19 19 18 17 17 16 16 16 16 15 14 13 12 11
20 21 22 22 23 24 26 27 28 28 29 30 28 27 27 26 24 23 21 20 19 19 18 18 18 18 18 18 17 14 13 13
21 22 24 25 26 27 28 28 29 31 31 31 33 30 29 29 28 26 25 23 22 21 20 19 19 19 19 20 19 17 15 13
23 25 26 28 28 30 30 31 32 33 33 33 33 35 33 31 31 30 28 27 25 23 22 21 21 20 20 21 21 19 16 14
25 27 28 29 30 31 32 32 34 35 36 36 36 36 38 37 35 34 32 30 28 26 23 22 21 21 21 22 22 21 19 16
28 29 30 31 32 33 34 35 36 37 38 39 39 40 40 40 40 38 36 34 31 29 26 24 23 22 22 22 23 23 21 19
30 31 32 33 34 35 37 38 39 40 41 41 42 43 43 43 43 43 41 39 37 33 30 27 25 24 23 24 24 24 23 21
32 33 34 36 37 38 39 40 42 43 44 45 46 47 48 46 46 46 45 43 41 38 35 31 28 26 25 25 25 25 25 24
34 36 36 37 39 41 43 45 45 46 47 49 49 50 51 51 50 49 48 48 46 43 39 35 31 29 26 25 25 26 27 26
36 37 38 39 42 44 46 49 50 52 51 51 51 51 52 54 55 53 52 50 49 47 44 39 35 34 28 26 25 25 27 27
38 39 39 41 45 47 50 51 52 50 49 50 51 52 53 55 57 57 56 54 52 51 49 45 40 37 34 28 25 25 24 26
39 39 40 42 46 49 52 51 45 42 41 43 47 49 51 53 57 60 59 58 55 52 53 51 47 42 38 35 31 26 24 23
39 39 41 44 46 49 49 42 41 39 38 39 41 43 47 51 55 60 61 60 61 56 55 56 52 47 43 38 33 31 27 24
39 39 41 43 47 48 42 40 38 37 38 39 41 42 44 46 50 57 61 62 63 61 59 60 57 53 47 43 39 35 31 26
38 39 41 42 45 45 40 39 38 38 40 41 44 45 45 45 47 51 59 61 65 64 65 47 55 57 52 47 43 39 34 31
38 40 40 42 44 44 40 39 36 37 40 43 45 42 42 45 48 51 53 57 61 63 63 59 55 58 56 51 45 43 39 36
Wind_Direction
284 283 279 271 265 266 269 273 274 277 278 279 278 276 272 271 267 266 263 259 256 254 255 255 254 250 248 244 238 232 240 243
284 281 282 279 273 270 270 272 273 274 274 274 273 271 269 267 264 262 261 258 256 253 253 253 252 250 247 244 235 232 245 255
311 298 287 283 279 275 273 271 271 271 271 271 269 267 266 263 262 260 259 257 255 254 252 251 250 249 247 242 234 237 249 252
305 301 295 291 288 280 275 273 272 272 270 268 266 265 264 263 260 259 258 257 255 253 252 250 249 247 246 239 236 240 246 240
303 300 298 294 290 286 281 279 273 271 271 268 265 263 261 260 259 258 257 255 254 253 251 250 249 246 245 240 236 238 242 236
303 299 297 295 292 287 285 281 277 274 271 267 265 262 259 258 257 256 254 254 254 252 251 250 248 246 244 238 235 236 234 234
305 303 300 296 292 290 286 282 279 277 273 269 262 261 259 256 255 254 253 252 252 253 252 250 248 247 245 237 233 233 232 234
307 304 302 299 294 291 287 283 280 277 274 269 265 259 258 257 254 252 251 250 251 252 252 249 248 247 243 236 231 230 228 231
309 306 304 301 298 294 289 285 282 277 274 269 266 262 257 256 253 250 249 249 249 250 251 248 246 244 240 234 230 228 228 230
310 307 303 301 298 295 291 289 284 279 275 270 266 263 260 255 252 250 248 247 247 246 246 246 244 241 238 233 230 228 229 226
313 308 305 303 300 297 293 290 286 282 277 272 267 263 260 257 253 250 247 246 244 243 243 243 241 239 236 233 231 229 228 228
314 311 307 305 302 300 297 293 288 284 279 274 269 264 259 257 254 250 246 244 242 240 240 240 240 238 235 234 232 230 229 229
316 312 309 307 305 304 300 296 292 286 280 274 270 266 260 255 253 250 246 242 240 238 237 235 236 234 233 234 234 233 231 229
315 313 310 308 307 305 302 298 293 288 282 274 268 266 262 255 251 248 246 243 238 235 233 233 233 229 232 230 233 234 233 230
315 314 311 310 310 308 306 302 298 292 286 277 269 265 261 256 250 247 244 241 239 233 231 230 230 228 228 230 230 233 230 229
315 315 314 313 313 313 311 305 300 296 291 284 274 265 261 255 250 245 243 240 238 235 231 229 228 228 227 228 229 229 228 229
316 315 315 316 317 318 315 308 304 299 295 291 283 273 263 258 250 243 240 238 236 235 231 227 226 226 226 226 226 226 227 230
318 317 318 319 320 321 317 312 308 304 300 297 291 280 268 260 251 243 238 236 234 233 233 226 224 225 224 225 224 224 226 228
319 318 320 321 322 323 321 315 310 307 305 301 298 285 271 261 253 245 236 234 231 231 233 222 224 222 222 223 224 225 225 227
320 320 320 323 323 323 320 321 313 311 310 305 302 289 273 261 252 242 235 231 229 231 233 232 221 221 220 221 223 224 225 226